Home > Weather > Rohrbach > Past weeks

Flag for Austria Weather for the Past 2 Weeks in Rohrbach, Upper Austria, Austria

Now
32 °F

Chilly.


Feels Like: 32 °F
Forecast: 25 / 38 °F
Wind: No wind

Location: Rohrbach

Current Time: Feb 12, 2016 at 11:43:50 AM

Latest Report: Feb 12, 2016 at 11:00 AM


Visibility: N/A

Pressure: 29.72 "Hg (27.56 "Hg at 605m altitude)

Humidity: 92%

Dew point: 30 °F

Location of RohrbachLocation

Historic Weather in Rohrbach — Graph

°F

Rohrbach Temperature Yesterday

Maximum temperature yesterday: 34 °F (at 4:00 PM)
Minimum temperature yesterday: 26 °F (at 9:00 PM)
Average temperature yesterday: 32 °F

High & Low Weather Summary for the Past Weeks

 TemperatureHumidityPressure
High50 °F (Feb 7, 3:00 PM)100% (Jan 29, 4:00 AM)30.46 "Hg (Jan 29, 4:00 AM)
Low26 °F (Feb 12, 7:00 AM)58% (Feb 8, 2:00 PM)29.23 "Hg (Feb 9, 10:00 PM)
Average38 °F89%30.01 "Hg
* Reported Jan 28 10:00 AM — Feb 12 10:00 AM, Rohrbach, Weather by CustomWeather, © 2016

Note: Actual official high and low records may vary slightly from our data, if they occured in-between our weather recording intervals... More about our weather records

Advertising

Rohrbach Weather History for the Previous 24 Hours

 ConditionsComfort  
Time TempWeatherWind HumidityBarometerVisibility
10:00 AM
Fri, Feb 12
29 °FChilly.1 mph96%29.75 "HgN/A
9:00 AM26 °FChilly.1 mph98%29.78 "HgN/A
8:00 AM26 °FChilly.No wind99%29.79 "HgN/A
7:00 AM26 °FChilly.1 mph99%29.80 "HgN/A
5:00 AM28 °FChilly.1 mph98%29.79 "HgN/A
4:00 AM28 °FChilly.1 mph98%29.80 "HgN/A
9:00 PM
Thu, Feb 11
26 °FChilly.1 mph99%29.83 "HgN/A
8:00 PM28 °FChilly.No wind99%29.83 "HgN/A
7:00 PM30 °FChilly.No wind98%29.82 "HgN/A
6:00 PM32 °FChilly.1 mph94%29.80 "HgN/A
5:00 PM33 °FChilly.1 mph92%29.79 "HgN/A
4:00 PM34 °FChilly.2 mph90%29.79 "HgN/A
3:00 PM34 °FSprinkles. Cloudy.2 mph92%29.79 "HgN/A
2:00 PM33 °FFog.2 mph95%29.80 "HgN/A
1:00 PM33 °FChilly.3 mph94%29.80 "HgN/A
12:00 PM33 °FFog.5 mph95%29.80 "HgN/A
11:00 AM32 °FFog.3 mph95%29.80 "HgN/A
Weather by CustomWeather, © 2016

See weather overviewHow to use our weather pages